This is the latest recevied weather packets stored in our database for station/object KE0TNI-13. If no packets are shown the sender has not sent any weather packets the latest 10 day(s).
| Time | Temp. | Humidity | Pressure | Rain* | Wind** | Luminosity | Snow |
|---|---|---|---|---|---|---|---|
| 1778012583 | -1.11° C | 95% | 1013.5 hPa | 0.51 mm | - | 117 W/m² | - |
| 1778012280 | -0.56° C | 95% | 1013.6 hPa | 0.51 mm | - | 87 W/m² | - |
| 1778011977 | -0.56° C | 95% | 1013.2 hPa | 0 mm | - | 102 W/m² | - |
| 1778011675 | -0.56° C | 95% | 1013.5 hPa | 0 mm | - | 100 W/m² | - |
| 1778011372 | -0.56° C | 94% | 1013.4 hPa | 0 mm | - | 119 W/m² | - |
| 1778011067 | -0.56° C | 94% | 1013.5 hPa | 0 mm | - | 124 W/m² | - |
| 1778010765 | -0.56° C | 95% | 1013.4 hPa | 0 mm | - | 91 W/m² | - |
| 1778010462 | -0.56° C | 94% | 1013.4 hPa | 0 mm | - | 135 W/m² | - |
| 1778010159 | -0.56° C | 94% | 1013.5 hPa | 0 mm | - | 112 W/m² | - |
| 1778009854 | -0.56° C | 95% | 1013.5 hPa | 0 mm | - | 119 W/m² | - |
| 1778009552 | -0.56° C | 95% | 1013.2 hPa | 0 mm | - | 64 W/m² | - |
| 1778009250 | -1.11° C | 95% | 1013.5 hPa | 0 mm | - | 66 W/m² | - |
| 1778008948 | -1.11° C | 95% | 1013.6 hPa | 0 mm | - | 83 W/m² | - |
| 1778008646 | -0.56° C | 95% | 1013.4 hPa | 0 mm | - | 68 W/m² | - |
| 1778008344 | -0.56° C | 95% | 1013.5 hPa | 0 mm | - | 68 W/m² | - |
| 1778008040 | -0.56° C | 95% | 1013.7 hPa | 0 mm | - | 89 W/m² | - |
| 1778007739 | -0.56° C | 95% | 1013.6 hPa | 0.51 mm | - | 125 W/m² | - |
| 1778007436 | -1.11° C | 95% | 1013.9 hPa | 0.51 mm | - | 114 W/m² | - |
| 1778007133 | -1.11° C | 96% | 1013.6 hPa | 0 mm | - | 97 W/m² | - |
| 1778006829 | -1.11° C | 96% | 1013.9 hPa | 0.51 mm | - | 65 W/m² | - |
| 1778006527 | -1.11° C | 96% | 1014 hPa | 0.51 mm | - | 81 W/m² | - |
| 1778006223 | -1.11° C | 96% | 1014.1 hPa | 0.51 mm | - | 85 W/m² | - |
| 1778005921 | -1.11° C | 96% | 1013.7 hPa | 0.51 mm | - | 87 W/m² | - |
| 1778005616 | -1.11° C | 96% | 1014.1 hPa | 0 mm | - | 76 W/m² | - |
| 1778005314 | -1.11° C | 96% | 1014.1 hPa | 0 mm | - | 60 W/m² | - |
* Rain latest hour (hover to see other rain measurements)
** Current wind speed in m/s (hover to see current wind gust speed)